Temp
9 8 8 8 8 8 9 10 10 10 10 10 9 9 10 10 10 10 10 10 10 10 10 10 9 9 9 9 9 8 8 8 8 8 8 8 8 8 8 8 8 8 8 8 8 8 8 8 8
9 8 8 8 8 8 10 10 10 10 10 10 9 10 10 10 10 10 10 9 9 10 10 10 9 9 9 9 9 9 8 8 8 8 8 8 8 8 8 8 8 8 8 8 8 8 8 8 8
9 8 8 8 9 10 10 10 10 10 10 9 9 9 9 10 10 10 10 10 10 10 10 10 10 9 9 9 9 9 8 8 8 8 8 8 8 8 8 8 8 8 8 8 8 8 8 8 8
9 9 8 9 10 10 10 10 10 10 10 10 9 10 10 10 10 10 10 10 10 10 10 10 10 9 9 9 9 9 9 9 8 8 8 8 8 8 8 8 8 8 8 8 8 8 8 8 8
9 9 9 10 11 11 10 10 10 10 9 9 9 10 10 10 10 10 10 10 10 10 9 10 9 9 9 9 9 9 9 9 9 8 8 8 8 8 8 8 8 8 8 8 8 8 8 8 8
9 9 9 10 10 10 10 10 10 10 9 9 10 10 11 10 10 10 10 9 9 9 9 9 9 9 9 9 8 8 8 8 8 8 8 8 8 8 8 8 8 8 8 8 9 9 9 9 9
9 9 9 9 10 10 10 10 10 10 10 9 10 10 10 10 9 9 9 9 9 9 9 9 9 9 9 9 8 8 8 8 8 8 8 8 8 8 8 8 8 8 8 8 8 8 8 9 9
9 8 9 10 10 10 10 10 10 10 10 10 10 10 10 10 10 10 10 10 9 9 9 9 9 9 9 8 8 8 8 8 8 7 7 7 7 7 7 7 7 7 7 7 7 8 8 8 8
9 9 10 10 10 10 10 10 10 10 10 11 11 10 10 10 10 10 10 10 10 10 9 9 9 9 9 8 8 8 8 8 7 7 7 7 7 7 7 7 7 7 7 7 7 7 7 7 7
9 9 10 10 9 9 9 10 10 10 10 11 11 10 10 10 11 11 11 10 10 10 9 9 9 9 9 9 8 8 8 8 7 7 7 7 6 6 6 6 6 6 6 6 6 6 7 7 7
9 10 10 10 9 9 9 10 10 10 11 11 11 10 10 10 11 11 11 11 10 10 10 9 9 9 9 9 8 8 8 7 7 7 7 7 6 6 6 6 5 5 5 6 6 6 6 6 6
9 9 9 10 9 9 9 10 11 10 11 11 11 11 11 11 11 11 11 11 11 11 10 10 9 9 9 9 9 8 8 8 7 7 7 6 6 6 6 5 5 5 5 5 5 5 5 5 6
9 9 9 10 10 9 9 11 10 11 11 11 11 11 11 11 11 11 11 11 11 11 10 10 9 9 9 8 8 8 8 8 7 7 7 6 6 6 6 5 5 5 5 5 5 4 4 4 5
8 8 9 10 9 9 9 11 10 11 10 10 10 11 11 11 10 11 11 10 10 10 10 9 9 9 9 8 8 8 7 7 7 7 7 6 6 6 5 5 5 5 4 4 4 4 4 4 4
7 8 9 10 10 9 9 9 10 11 10 10 10 10 10 10 10 10 11 11 10 10 10 9 9 9 9 9 8 8 8 7 7 7 6 6 6 5 5 5 4 4 4 4 4 4 3 3 3
7 6 8 10 10 9 7 7 11 10 10 10 10 10 10 10 10 11 11 11 11 10 10 9 9 8 8 8 7 7 7 7 7 6 6 6 6 6 5 5 4 4 4 4 4 4 3 3 3
6 6 7 8 9 8 7 7 9 10 9 9 10 11 11 11 11 11 11 10 10 10 10 9 9 8 7 7 7 7 7 7 7 7 6 6 6 5 5 5 4 4 4 4 3 3 3 2 2
8 8 7 7 9 8 6 7 8 9 9 10 11 11 11 11 12 11 10 10 10 10 10 10 9 9 8 7 7 7 7 8 8 7 6 6 6 5 5 4 4 4 4 3 3 3 2 2 2
6 6 6 6 8 7 7 7 7 8 9 11 11 11 11 11 11 11 11 11 10 10 10 10 10 9 8 8 8 8 8 8 8 7 6 5 5 5 5 4 4 4 4 3 3 2 2 2 1
5 5 5 6 7 6 6 5 7 8 9 10 10 11 10 10 11 10 10 10 10 10 11 10 10 9 9 9 8 8 7 7 7 6 6 5 5 5 4 4 4 4 4 3 3 2 2 1 1
5 5 6 5 5 5 5 6 7 7 9 10 10 11 10 9 9 10 10 10 10 9 9 10 10 10 10 9 8 8 8 8 8 8 8 7 5 4 4 4 4 4 4 3 2 2 2 1 1
4 6 5 4 4 2 3 2 4 7 8 9 9 10 8 9 9 9 10 10 10 10 10 9 9 10 10 10 9 9 8 8 7 7 6 5 5 5 5 5 4 4 3 3 2 2 1 1 1
5 4 4 4 4 3 1 2 6 6 7 8 9 9 9 8 7 8 9 9 10 10 9 9 9 9 9 9 9 9 9 8 8 6 6 5 5 5 5 4 4 4 3 2 2 2 1 1 1
4 3 3 3 3 -0 3 3 7 7 7 8 8 7 7 7 7 7 8 9 9 9 9 8 8 8 8 8 8 8 8 8 7 7 6 6 5 5 5 4 4 3 3 3 3 2 2 1 1
4 2 1 -2 -4 -1 4 3 5 6 6 6 6 6 6 6 6 7 7 8 8 8 8 8 8 8 8 7 7 7 7 7 7 7 7 6 6 6 5 5 5 4 3 3 2 2 1 1 1
4 4 1 -2 -3 2 3 3 5 5 5 6 6 5 6 6 6 6 6 7 6 7 7 7 7 7 7 7 7 6 6 6 7 7 7 7 6 5 4 4 3 2 2 2 2 2 1 1 1
3 2 3 2 3 -0 2 3 3 6 6 6 6 5 5 5 6 5 5 5 4 5 6 6 6 6 6 6 6 6 6 6 6 6 6 6 5 5 4 4 3 2 2 2 2 1 1 0 0
2 2 1 0 -2 -2 1 2 3 5 7 6 4 4 4 5 5 5 4 5 3 4 3 4 3 4 4 4 5 5 5 5 5 5 5 5 5 4 4 3 3 2 2 1 1 1 1 0 -0
1 0 0 0 0 -0 -0 2 3 3 4 3 2 1 3 3 4 5 4 4 3 4 4 3 4 4 4 4 4 4 3 3 4 4 4 4 4 4 3 3 2 2 2 1 1 1 1 0 -1
-0 -1 -1 -2 -0 -0 -1 -1 1 1 2 2 1 0 0 0 2 2 2 1 1 2 3 3 3 3 3 3 3 4 4 3 3 3 3 3 4 3 3 2 2 2 1 1 0 0 -0 -1 -1
Height
3173 3173 3174 3174 3178 3173 3171 3171 3170 3170 3169 3168 3167 3167 3167 3166 3167 3169 3166 3166 3165 3165 3166 3166 3167 3167 3168 3168 3169 3169 3170 3171 3172 3173 3173 3174 3175 3175 3175 3177 3177 3177 3178 3180 3180 3180 3180 3181 3182
3172 3173 3173 3173 3173 3170 3169 3169 3169 3169 3169 3167 3166 3165 3165 3165 3164 3164 3165 3165 3165 3165 3165 3165 3166 3167 3166 3167 3168 3169 3169 3170 3171 3172 3172 3173 3173 3173 3174 3175 3176 3176 3178 3178 3179 3179 3180 3180 3181
3172 3172 3173 3171 3169 3168 3168 3168 3168 3168 3167 3166 3165 3164 3164 3164 3164 3163 3163 3164 3164 3164 3164 3164 3164 3165 3165 3166 3166 3167 3169 3169 3170 3170 3171 3172 3172 3173 3173 3173 3174 3175 3176 3176 3177 3178 3179 3179 3180
3171 3172 3172 3169 3166 3167 3167 3167 3166 3166 3166 3164 3164 3163 3163 3163 3162 3162 3161 3162 3162 3163 3163 3163 3163 3163 3164 3164 3165 3165 3166 3168 3169 3169 3170 3170 3170 3171 3172 3172 3172 3173 3173 3174 3175 3176 3176 3177 3178
3170 3170 3169 3166 3165 3165 3165 3166 3165 3165 3164 3163 3162 3161 3160 3161 3160 3160 3160 3160 3160 3160 3161 3161 3161 3161 3162 3162 3163 3164 3165 3166 3167 3168 3168 3169 3169 3169 3170 3170 3171 3172 3173 3173 3174 3174 3175 3175 3176
3170 3170 3167 3165 3164 3164 3164 3164 3164 3164 3163 3162 3160 3158 3159 3158 3158 3158 3158 3157 3157 3157 3158 3158 3158 3158 3159 3160 3161 3162 3162 3164 3165 3166 3167 3168 3168 3168 3168 3169 3169 3170 3171 3171 3172 3173 3173 3174 3174
3169 3168 3166 3164 3164 3164 3164 3163 3163 3162 3162 3161 3159 3157 3158 3157 3157 3157 3156 3155 3155 3154 3155 3155 3155 3155 3155 3156 3157 3159 3160 3160 3161 3162 3164 3165 3165 3166 3166 3167 3167 3168 3169 3169 3170 3170 3170 3171 3171
3168 3167 3164 3164 3164 3164 3163 3162 3161 3160 3159 3159 3158 3157 3157 3155 3154 3153 3153 3153 3152 3152 3152 3152 3152 3152 3153 3153 3154 3155 3156 3157 3158 3159 3161 3162 3163 3163 3163 3164 3164 3165 3165 3166 3166 3166 3167 3168 3168
3166 3165 3162 3163 3162 3161 3161 3160 3160 3157 3156 3155 3155 3155 3154 3152 3151 3151 3150 3150 3150 3149 3148 3148 3148 3148 3149 3149 3150 3151 3152 3153 3154 3155 3156 3158 3159 3160 3160 3161 3161 3161 3162 3162 3162 3162 3162 3163 3163
3164 3162 3161 3162 3161 3159 3158 3156 3156 3153 3153 3153 3152 3151 3149 3148 3147 3147 3146 3146 3146 3146 3145 3144 3144 3144 3145 3145 3146 3147 3148 3149 3150 3151 3153 3153 3154 3156 3156 3158 3158 3158 3159 3159 3159 3158 3158 3158 3158
3159 3157 3160 3158 3158 3156 3154 3153 3152 3149 3148 3152 3148 3147 3145 3144 3143 3142 3142 3141 3141 3141 3140 3140 3140 3140 3140 3141 3141 3142 3143 3144 3145 3147 3148 3149 3151 3152 3153 3153 3153 3154 3154 3155 3155 3155 3154 3154 3153
3155 3153 3155 3153 3153 3151 3151 3149 3147 3144 3147 3148 3146 3143 3142 3141 3139 3138 3137 3136 3135 3134 3135 3134 3134 3134 3135 3135 3136 3137 3138 3139 3140 3141 3142 3143 3145 3146 3148 3148 3149 3150 3150 3150 3150 3150 3149 3149 3149
3149 3149 3149 3149 3146 3146 3146 3144 3142 3138 3144 3144 3141 3139 3137 3135 3134 3133 3132 3131 3131 3131 3130 3129 3128 3129 3129 3129 3130 3130 3132 3133 3134 3134 3136 3137 3139 3141 3142 3143 3145 3146 3146 3146 3146 3147 3147 3146 3145
3143 3143 3142 3141 3140 3140 3138 3138 3133 3136 3139 3136 3134 3133 3132 3129 3128 3127 3127 3126 3125 3124 3125 3123 3123 3123 3122 3123 3124 3125 3126 3127 3127 3128 3130 3131 3133 3134 3136 3138 3139 3139 3140 3141 3141 3141 3141 3140 3139
3137 3136 3135 3134 3136 3132 3129 3129 3125 3129 3127 3127 3126 3125 3124 3123 3121 3120 3120 3119 3119 3118 3117 3117 3117 3115 3116 3116 3116 3117 3119 3120 3120 3122 3123 3124 3125 3127 3129 3131 3132 3133 3133 3134 3134 3135 3134 3134 3133
3133 3129 3126 3130 3130 3126 3123 3115 3119 3119 3117 3117 3117 3115 3114 3113 3112 3112 3112 3112 3111 3110 3109 3109 3109 3108 3107 3108 3109 3109 3111 3112 3113 3114 3115 3117 3119 3121 3123 3124 3125 3126 3127 3128 3128 3129 3128 3128 3127
3127 3121 3120 3122 3127 3119 3115 3105 3111 3113 3107 3105 3106 3105 3104 3103 3103 3103 3103 3102 3100 3099 3098 3098 3099 3099 3099 3099 3099 3100 3102 3102 3104 3105 3106 3109 3111 3113 3115 3118 3118 3119 3120 3121 3122 3123 3122 3122 3121
3122 3118 3115 3113 3119 3110 3103 3094 3099 3105 3101 3094 3093 3094 3093 3092 3091 3091 3088 3088 3087 3086 3086 3087 3088 3089 3090 3089 3090 3091 3092 3092 3094 3095 3097 3100 3102 3105 3108 3109 3111 3112 3113 3114 3116 3115 3116 3116 3115
3118 3115 3108 3109 3111 3101 3094 3085 3087 3090 3091 3087 3086 3084 3083 3081 3081 3080 3078 3077 3076 3075 3075 3077 3078 3079 3079 3079 3080 3081 3083 3084 3086 3087 3089 3091 3094 3096 3099 3101 3102 3104 3106 3107 3107 3108 3108 3108 3108
3113 3107 3102 3097 3102 3096 3085 3069 3075 3080 3079 3080 3078 3076 3074 3072 3073 3072 3070 3069 3067 3066 3065 3066 3068 3069 3070 3070 3071 3071 3074 3075 3076 3078 3079 3081 3084 3086 3089 3092 3094 3096 3097 3098 3099 3100 3100 3101 3100
3106 3105 3098 3093 3093 3087 3075 3053 3065 3069 3070 3071 3070 3070 3067 3067 3065 3066 3064 3063 3061 3060 3058 3058 3059 3060 3061 3062 3062 3062 3063 3064 3065 3067 3069 3071 3075 3078 3081 3084 3087 3088 3089 3091 3091 3091 3092 3092 3092
3094 3102 3096 3093 3090 3081 3080 3042 3050 3058 3062 3065 3064 3066 3066 3063 3062 3062 3060 3057 3053 3053 3053 3052 3051 3051 3052 3053 3054 3054 3055 3056 3059 3061 3063 3064 3067 3070 3073 3076 3078 3080 3081 3082 3083 3082 3082 3083 3084
3086 3089 3089 3086 3083 3078 3074 3074 3044 3052 3054 3056 3059 3060 3060 3061 3058 3056 3053 3047 3047 3044 3042 3043 3044 3045 3045 3045 3048 3047 3047 3047 3050 3051 3052 3053 3056 3060 3064 3067 3069 3071 3073 3074 3074 3074 3075 3075 3076
3087 3083 3083 3083 3078 3073 3067 3072 3013 3047 3050 3051 3056 3057 3057 3057 3053 3049 3045 3040 3038 3037 3036 3036 3037 3039 3041 3040 3039 3039 3040 3041 3042 3042 3043 3045 3047 3050 3054 3057 3060 3063 3064 3065 3066 3066 3066 3067 3068
3080 3081 3077 3078 3079 3066 3060 3063 3041 3047 3050 3047 3046 3048 3050 3049 3045 3044 3040 3036 3032 3029 3027 3029 3030 3031 3032 3033 3033 3033 3032 3032 3033 3035 3036 3038 3040 3044 3048 3051 3054 3055 3056 3056 3057 3057 3057 3058 3059
3071 3073 3072 3072 3070 3059 3058 3048 3029 3045 3044 3042 3037 3039 3040 3041 3040 3038 3035 3031 3027 3022 3019 3020 3021 3021 3022 3023 3024 3024 3025 3025 3025 3027 3029 3031 3034 3036 3040 3042 3045 3046 3047 3048 3048 3048 3048 3049 3050
3064 3061 3065 3058 3057 3055 3049 3040 3035 3031 3032 3034 3033 3036 3040 3038 3033 3026 3027 3026 3021 3017 3015 3016 3016 3016 3017 3017 3017 3019 3019 3021 3021 3022 3022 3023 3025 3028 3031 3032 3034 3036 3037 3038 3039 3039 3039 3041 3042
3056 3057 3053 3053 3053 3045 3035 3034 3031 3024 3021 3029 3029 3028 3027 3026 3021 3017 3019 3019 3014 3010 3008 3004 3003 3003 3006 3008 3011 3013 3014 3014 3015 3015 3016 3019 3020 3020 3023 3025 3026 3027 3028 3028 3028 3029 3030 3031 3034
3047 3045 3045 3042 3042 3033 3027 3024 3030 3026 3025 3020 3018 3015 3016 3017 3015 3011 3007 3007 3006 3004 3001 3000 3000 2999 2998 2996 2995 2997 3002 3004 3005 3006 3008 3010 3012 3013 3013 3015 3016 3016 3017 3019 3019 3019 3021 3022 3024
3035 3035 3036 3032 3023 3019 3015 3012 3018 3021 3022 3013 3008 3004 3003 3007 3006 3004 3002 2998 2996 2994 2993 2992 2990 2989 2988 2990 2990 2991 2991 2992 2991 2992 2996 3000 3001 3002 3004 3004 3004 3004 3006 3007 3009 3011 3011 3012 3013
Wind_Speed
6 6 7 8 7 6 7 5 5 5 10 13 12 13 15 14 14 10 7 7 6 7 8 8 7 7 6 6 6 6 5 5 5 6 6 8 7 8 9 11 11 11 10 10 10 10 8 8 8
8 8 9 10 7 8 6 3 2 5 10 13 13 14 14 16 15 14 12 12 9 8 8 10 11 10 9 8 8 7 6 5 5 5 7 7 8 9 11 12 13 12 11 10 11 10 10 10 10
8 9 8 7 7 6 3 4 6 8 11 14 14 13 15 16 14 13 13 11 10 10 12 12 13 13 12 11 11 9 8 7 7 9 8 9 9 10 12 13 14 14 13 12 12 12 12 12 12
7 8 9 11 11 9 7 7 9 8 9 11 12 14 14 13 13 12 12 11 10 10 10 12 13 14 14 13 13 12 11 10 9 9 9 9 11 12 13 15 15 15 15 15 15 15 15 15 15
7 9 11 10 10 10 10 10 9 9 10 12 14 15 14 11 11 12 12 12 11 10 11 12 13 14 15 16 15 14 13 13 12 11 12 13 14 15 16 16 16 16 16 16 17 17 17 17 17
8 8 10 13 10 10 10 11 9 9 11 11 15 17 14 12 10 11 12 13 14 13 12 12 12 13 14 15 16 16 15 15 14 14 14 14 15 15 15 15 17 17 18 18 19 19 19 20 19
9 11 15 16 15 12 8 11 11 13 12 12 17 18 12 7 13 13 13 12 12 12 11 12 13 14 14 14 15 15 15 16 16 16 16 16 14 13 14 15 15 17 18 19 20 21 21 21 22
11 14 18 16 14 14 14 12 13 15 16 18 19 14 19 17 15 16 16 16 15 13 12 12 13 14 15 16 17 17 16 17 18 18 18 17 16 15 15 15 16 17 18 20 22 22 23 23 24
14 18 20 19 18 17 17 18 18 23 21 21 21 20 19 19 19 19 19 18 16 16 16 15 15 15 16 17 18 19 18 20 20 19 20 19 18 17 17 17 18 19 20 20 22 24 26 27 27
18 23 22 17 19 23 23 24 22 26 24 18 20 21 24 23 23 22 21 19 18 17 18 19 19 18 18 18 18 20 20 22 21 22 22 21 20 19 18 18 19 19 19 20 21 23 24 26 27
27 28 22 25 22 25 28 26 26 28 26 15 24 18 18 20 21 22 22 21 20 20 22 21 22 22 21 20 20 21 22 23 23 24 24 23 23 22 21 20 19 19 19 20 20 21 22 24 24
30 31 28 28 27 28 28 29 30 33 24 19 22 24 24 24 25 24 22 22 21 22 23 25 25 26 25 24 23 23 24 24 24 25 25 25 24 24 23 22 21 20 20 20 19 20 21 23 25
34 33 33 32 34 34 33 31 34 36 24 25 26 27 28 27 29 27 26 22 21 21 22 23 26 26 27 27 25 25 25 26 26 27 28 27 27 27 26 24 23 22 21 21 20 21 21 21 23
35 35 36 37 37 37 37 35 39 34 29 29 32 30 29 32 32 30 28 24 25 24 23 24 26 27 29 29 28 27 26 27 29 30 30 30 30 30 28 27 26 24 24 23 23 22 22 22 23
34 35 37 40 39 42 38 37 44 37 35 32 33 31 33 34 34 33 30 30 28 29 29 26 27 29 32 32 31 31 30 30 32 32 32 32 32 32 31 29 27 26 26 27 25 25 24 23 24
40 42 45 42 41 43 43 48 39 39 40 39 36 37 36 35 35 36 35 35 34 35 33 33 30 31 33 34 34 34 33 34 34 34 35 34 35 34 33 31 29 29 29 28 27 27 25 25 24
39 43 46 43 35 42 44 49 44 40 45 45 43 42 41 41 40 39 38 39 40 39 38 36 36 34 34 37 38 39 38 38 38 38 38 37 36 36 34 32 32 32 31 29 30 29 27 26 25
43 43 41 42 38 46 51 57 51 43 44 49 48 45 44 43 40 36 35 34 37 40 40 39 39 40 37 39 41 39 39 40 37 40 41 39 38 37 35 34 33 32 31 31 32 30 28 27 26
39 42 47 46 42 48 51 56 53 48 44 44 43 42 38 34 32 32 32 29 30 31 35 38 38 38 40 41 41 39 38 39 39 40 40 40 39 38 36 35 34 32 32 34 33 31 29 27 26
37 42 47 51 42 45 52 60 51 45 44 37 34 32 31 29 17 17 15 18 22 30 35 39 39 39 42 43 39 38 38 40 39 38 39 41 40 39 37 35 33 33 33 33 32 31 29 26 24
43 42 49 50 44 42 48 54 31 27 38 34 20 18 12 9 25 18 18 13 17 20 24 31 38 43 44 41 39 38 39 42 42 41 40 40 41 39 36 35 34 33 33 32 31 29 27 25 25
36 28 35 39 38 26 25 25 32 31 21 26 8 7 6 22 35 29 31 28 24 27 29 28 28 27 26 30 33 36 39 40 37 37 35 36 38 38 36 34 34 33 32 32 30 29 27 26 25
32 24 27 30 32 36 17 13 30 28 25 5 5 5 16 33 24 46 35 32 30 30 31 30 25 23 23 26 28 32 38 39 38 38 37 37 37 37 36 36 36 36 33 30 29 28 27 27 26
33 30 26 27 27 12 21 18 60 11 5 9 5 30 21 36 41 36 29 35 28 30 30 27 18 16 22 27 31 33 35 36 37 38 38 36 36 37 38 39 38 33 29 27 27 28 28 28 26
33 29 6 4 3 10 6 13 41 28 32 33 25 39 46 32 25 25 27 32 32 34 27 22 17 15 20 27 31 30 31 31 31 32 32 32 35 38 39 36 33 31 29 28 29 28 28 28 30
26 21 15 7 5 14 28 15 51 46 53 53 38 35 24 16 19 23 27 22 21 17 12 12 13 16 21 25 28 28 25 23 24 27 29 32 35 39 38 35 34 32 31 30 29 29 29 30 31
27 26 32 36 34 16 34 39 48 57 43 36 21 10 24 29 28 22 21 25 27 19 14 13 13 16 20 22 23 22 19 17 19 23 32 37 40 42 41 39 37 34 32 30 28 28 29 30 31
31 32 16 11 4 8 12 32 31 53 61 55 40 35 39 36 31 30 33 30 23 17 11 3 6 8 11 13 16 17 20 23 26 27 31 38 43 44 40 39 38 35 33 33 32 29 31 31 30
30 26 31 30 26 12 18 23 46 53 49 45 40 33 33 32 36 41 48 45 35 31 34 28 26 23 22 20 22 25 27 28 30 31 34 36 42 48 45 42 42 40 39 37 37 34 33 32 31
37 40 37 28 18 34 28 24 42 38 40 49 54 47 44 37 45 48 42 38 34 38 41 43 37 40 42 44 42 42 44 37 40 35 36 41 44 52 53 49 48 46 45 42 40 37 36 34 33
Wind_Direction
254 258 268 280 286 261 267 284 289 321 325 329 311 284 292 295 300 298 307 317 278 258 247 248 239 234 241 240 234 233 233 235 236 251 265 270 276 281 284 280 277 278 280 279 281 278 275 268 259
260 261 267 275 263 259 272 263 335 322 323 325 310 296 295 298 308 307 300 286 269 255 257 256 251 247 240 238 241 236 234 235 249 258 264 282 289 287 281 282 282 283 275 271 268 270 269 267 268
255 260 264 265 257 258 253 291 287 302 316 320 306 303 293 310 316 300 306 292 277 263 262 258 252 251 246 243 244 237 235 243 256 271 276 281 285 287 289 288 285 282 280 278 275 270 265 267 266
249 254 254 259 274 272 291 311 287 297 315 325 316 304 303 316 308 301 294 299 288 276 275 258 252 248 248 244 243 249 247 249 257 266 276 288 296 299 293 288 286 286 287 286 282 282 279 271 265
243 252 250 267 280 277 280 297 295 304 315 315 316 317 317 324 305 293 287 288 282 276 271 268 257 251 246 247 248 244 246 248 253 264 276 287 293 293 292 290 287 285 283 281 282 283 284 282 281
246 253 266 281 293 292 283 284 285 302 305 315 317 317 325 323 303 298 291 288 288 282 273 263 256 254 248 246 246 247 247 245 245 247 257 268 277 282 282 281 282 282 282 282 282 282 283 283 282
256 265 277 288 298 303 290 291 292 294 301 307 311 312 335 326 322 310 301 292 288 283 276 269 261 259 255 253 253 254 253 253 251 251 255 261 267 274 275 273 271 271 272 274 275 275 275 276 276
282 282 284 296 306 304 296 296 298 296 299 305 308 311 311 308 303 294 293 292 288 280 273 269 263 261 260 257 256 254 253 253 251 250 253 259 265 271 273 274 274 277 277 276 275 275 274 273 272
284 278 284 295 303 304 300 301 307 302 301 304 311 321 313 299 296 298 295 293 287 283 278 273 268 264 261 258 258 259 258 257 256 256 257 259 263 271 278 281 282 282 283 282 279 276 274 272 272
282 280 287 296 298 298 295 297 303 297 302 311 321 320 307 301 299 298 297 295 285 281 273 268 269 266 263 261 260 259 259 259 259 258 258 260 264 270 276 279 279 279 279 282 282 280 277 275 273
282 278 288 287 289 289 289 294 292 294 296 317 315 315 310 317 312 305 298 293 286 274 271 271 268 268 266 264 261 260 260 258 257 257 258 258 261 265 270 275 276 276 277 278 280 281 280 279 275
283 283 287 285 287 284 285 288 288 290 296 304 311 304 299 307 311 309 298 290 282 276 271 271 273 271 270 267 266 263 262 262 260 259 259 260 262 265 269 273 275 274 275 279 283 286 286 281 276
282 286 285 287 284 287 289 288 292 286 296 302 296 296 291 294 302 301 296 286 286 287 285 277 269 272 271 267 266 264 263 263 262 260 260 259 260 261 263 267 271 272 273 276 280 281 281 280 276
284 285 285 284 285 289 290 293 291 293 307 293 290 288 284 286 294 291 290 289 276 275 274 274 272 268 266 267 266 266 263 260 258 258 258 258 258 259 261 265 268 274 279 281 281 284 284 285 282
283 284 283 281 290 292 295 291 288 298 301 296 295 290 286 286 285 286 286 284 287 279 272 269 269 269 268 267 264 264 263 259 256 257 256 256 258 260 261 263 268 273 277 280 283 285 287 288 284
278 281 282 288 296 297 297 292 289 298 298 297 294 293 289 284 282 283 283 283 282 280 276 266 264 267 267 266 266 266 265 262 259 257 255 253 253 255 257 260 265 268 271 276 281 283 286 287 286
274 274 281 292 289 292 292 293 293 296 298 297 294 289 289 289 286 284 284 281 276 272 268 264 260 262 264 265 265 264 264 259 258 255 253 252 251 252 253 256 259 264 269 276 278 279 283 284 284
284 287 289 288 293 294 292 290 293 294 293 290 291 293 294 294 294 291 283 275 268 263 262 259 257 259 262 264 267 266 263 257 255 254 251 250 250 250 251 252 255 260 266 271 274 277 280 282 283
287 286 286 287 294 291 290 291 294 293 288 289 292 296 297 299 294 291 281 273 269 260 256 257 258 259 261 265 268 265 263 258 258 259 254 251 252 251 250 251 253 258 264 267 271 277 280 282 281
283 284 283 290 297 296 297 292 291 294 295 295 300 300 304 297 314 342 322 289 277 265 257 255 255 257 261 264 266 261 258 256 255 253 251 248 249 249 248 248 251 255 260 266 272 276 278 279 279
280 281 287 291 301 295 298 296 305 298 300 304 298 313 327 358 337 336 311 294 287 283 275 268 265 266 269 267 261 262 257 255 254 254 252 249 246 245 244 244 248 252 257 264 268 272 274 276 276
282 297 297 295 298 293 296 297 300 314 315 303 303 306 341 325 320 313 312 296 273 265 271 269 274 270 272 271 264 265 263 259 259 256 255 252 249 243 241 242 245 249 252 257 262 265 271 274 276
287 293 284 287 288 293 299 266 298 306 309 327 234 181 300 304 306 317 305 285 274 264 260 269 269 275 271 267 265 273 267 262 257 252 247 244 240 234 234 236 239 242 247 252 258 267 271 275 278
293 282 276 276 272 276 277 242 290 306 95 137 274 303 311 311 305 298 287 284 285 280 282 269 266 276 276 270 268 263 260 262 261 255 249 242 229 227 229 231 236 241 245 252 259 262 269 274 275
274 261 290 276 165 233 283 241 264 275 287 294 286 295 302 301 292 298 301 302 309 298 272 270 263 279 278 270 268 264 262 259 257 252 246 235 230 229 230 235 242 246 246 250 254 261 264 269 271
276 252 209 221 253 284 291 258 272 282 287 301 308 300 294 285 293 300 308 301 328 309 270 253 260 258 265 259 256 256 256 248 244 244 241 234 235 231 227 233 236 237 240 247 254 259 261 266 271
264 245 270 256 263 271 268 267 278 288 296 301 320 301 302 292 281 289 312 319 333 320 292 273 252 257 257 256 254 246 233 255 264 263 247 234 231 229 230 234 238 241 250 257 262 265 266 265 266
252 261 256 239 254 250 231 260 270 289 291 298 299 286 285 279 279 285 296 292 296 292 308 243 209 231 248 256 252 257 262 265 268 266 265 254 238 231 233 243 249 253 253 260 267 269 273 272 267
256 248 260 267 258 261 267 262 274 278 292 297 299 294 284 277 275 273 290 289 305 272 276 287 276 270 267 244 235 243 260 262 265 266 263 261 248 238 237 245 252 255 256 260 265 266 267 271 271
268 270 267 246 257 252 267 266 256 264 279 289 294 294 292 285 280 287 285 285 283 290 274 275 285 280 279 280 279 275 276 267 257 258 261 257 250 246 239 239 245 250 250 247 252 257 263 266 271